| time (UTC) | temp F | wind direction | speed MPH | gust MPH | rain 1hr in | rain 24hr in | rain mn in | humidity % | barometer mb |
| 20260505230348 | 59 | 305 | 4.0 | 6.0 | 0.00 | 0.00 | 0.00 | 36 | 1005.1 |
| 20260505225845 | 59 | 314 | 5.0 | 7.0 | 0.00 | 0.00 | 0.00 | 36 | 1005.0 |
| 20260505225342 | 59 | 325 | 2.0 | 5.0 | 0.00 | 0.00 | 0.00 | 32 | 1004.9 |
| 20260505224837 | 60 | 343 | 5.0 | 8.0 | 0.00 | 0.00 | 0.00 | 33 | 1004.9 |
| 20260505224335 | 60 | 292 | 7.0 | 8.0 | 0.00 | 0.00 | 0.00 | 34 | 1005.2 |
| 20260505223832 | 60 | 280 | 3.0 | 7.0 | 0.00 | 0.00 | 0.00 | 35 | 1005.1 |
| 20260505223329 | 62 | 301 | 4.0 | 4.0 | 0.00 | 0.00 | 0.00 | 30 | 1005.0 |
| 20260505222825 | 63 | 278 | 3.0 | 6.0 | 0.00 | 0.00 | 0.00 | 32 | 1005.1 |
| 20260505222321 | 64 | 272 | 2.0 | 6.0 | 0.00 | 0.00 | 0.00 | 29 | 1004.8 |
| 20260505221818 | 67 | 279 | 4.0 | 6.0 | 0.00 | 0.00 | 0.00 | 28 | 1004.9 |
| 20260505221315 | 68 | 290 | 3.0 | 7.0 | 0.00 | 0.00 | 0.00 | 28 | 1005.0 |
| 20260505220812 | 68 | 290 | 2.0 | 5.0 | 0.00 | 0.00 | 0.00 | 28 | 1004.9 |
| 20260505220309 | 67 | 274 | 4.0 | 8.0 | 0.00 | 0.00 | 0.00 | 30 | 1005.0 |
| 20260505215807 | 65 | 136 | 7.0 | 11.0 | 0.00 | 0.00 | 0.00 | 27 | 1005.0 |
| 20260505215305 | 64 | 272 | 3.0 | 11.0 | 0.00 | 0.00 | 0.00 | 28 | 1005.5 |
| 20260505214802 | 66 | 148 | 4.0 | 6.0 | 0.00 | 0.00 | 0.00 | 24 | 1005.4 |
| 20260505214300 | 66 | 283 | 4.0 | 9.0 | 0.00 | 0.00 | 0.00 | 30 | 1005.2 |
| 20260505213756 | 67 | 318 | 3.0 | 6.0 | 0.00 | 0.00 | 0.00 | 27 | 1005.1 |
| 20260505213254 | 67 | 289 | 3.0 | 6.0 | 0.00 | 0.00 | 0.00 | 27 | 1005.5 |
| 20260505212749 | 67 | 237 | 2.0 | 4.0 | 0.00 | 0.00 | 0.00 | 29 | 1005.6 |
| 20260505212247 | 66 | 261 | 4.0 | 8.0 | 0.00 | 0.00 | 0.00 | 29 | 1005.6 |
| 20260505211744 | 66 | 209 | 3.0 | 6.0 | 0.00 | 0.00 | 0.00 | 27 | 1005.6 |
| 20260505211241 | 65 | 248 | 3.0 | 11.0 | 0.00 | 0.00 | 0.00 | 28 | 1005.5 |
| 20260505210737 | 65 | 254 | 2.0 | 6.0 | 0.00 | 0.00 | 0.00 | 29 | 1005.7 |
| 20260505210234 | 64 | 225 | 4.0 | 7.0 | 0.00 | 0.00 | 0.00 | 28 | 1006.1 |
| 20260505205732 | 65 | 299 | 3.0 | 8.0 | 0.00 | 0.00 | 0.00 | 29 | 1006.1 |
| 20260505205230 | 66 | 237 | 3.0 | 7.0 | 0.00 | 0.00 | 0.00 | 30 | 1006.2 |
| 20260505204726 | 65 | 154 | 3.0 | 8.0 | 0.00 | 0.00 | 0.00 | 30 | 1005.9 |
| 20260505204224 | 63 | 215 | 7.0 | 16.0 | 0.00 | 0.00 | 0.00 | 30 | 1005.9 |
| 20260505203721 | 64 | 194 | 6.0 | 12.0 | 0.00 | 0.00 | 0.00 | 27 | 1006.1 |
| 20260505203218 | 64 | 256 | 2.0 | 8.0 | 0.00 | 0.00 | 0.00 | 29 | 1006.1 |
| 20260505202713 | 62 | 238 | 4.0 | 15.0 | 0.00 | 0.00 | 0.00 | 35 | 1006.2 |
| 20260505202210 | 64 | 292 | 3.0 | 12.0 | 0.00 | 0.00 | 0.00 | 33 | 1005.9 |
| 20260505201706 | 62 | 119 | 1.0 | 9.0 | 0.00 | 0.00 | 0.00 | 30 | 1006.3 |
| 20260505201204 | 63 | 259 | 5.0 | 10.0 | 0.00 | 0.00 | 0.00 | 32 | 1006.2 |
| 20260505200702 | 63 | 264 | 5.0 | 11.0 | 0.00 | 0.00 | 0.00 | 35 | 1006.2 |
| 20260505200159 | 62 | 239 | 2.0 | 10.0 | 0.00 | 0.00 | 0.00 | 32 | 1006.3 |
| 20260505195654 | 64 | 276 | 3.0 | 5.0 | 0.00 | 0.00 | 0.00 | 31 | 1006.3 |
| 20260505195152 | 63 | 240 | 5.0 | 10.0 | 0.00 | 0.00 | 0.00 | 33 | 1006.5 |
| 20260505194649 | 61 | 172 | 2.0 | 10.0 | 0.00 | 0.00 | 0.00 | 34 | 1006.4 |
| 20260505194145 | 63 | 232 | 2.0 | 5.0 | 0.00 | 0.00 | 0.00 | 34 | 1006.5 |
| 20260505193642 | 60 | 254 | 2.0 | 10.0 | 0.00 | 0.00 | 0.00 | 38 | 1006.7 |
| 20260505193139 | 60 | 243 | 3.0 | 9.0 | 0.00 | 0.00 | 0.00 | 35 | 1006.8 |
| 20260505192638 | 61 | 152 | 2.0 | 6.0 | 0.00 | 0.00 | 0.00 | 36 | 1006.9 |
| 20260505192135 | 60 | 269 | 4.0 | 7.0 | 0.00 | 0.00 | 0.00 | 36 | 1006.5 |
| 20260505191633 | 60 | 188 | 4.0 | 9.0 | 0.00 | 0.00 | 0.00 | 36 | 1006.9 |
| 20260505191131 | 59 | 137 | 5.0 | 13.0 | 0.00 | 0.00 | 0.00 | 35 | 1006.9 |
| 20260505190627 | 59 | 208 | 6.0 | 7.0 | 0.00 | 0.00 | 0.00 | 36 | 1006.9 |
| 20260505190121 | 60 | 174 | 0.0 | 8.0 | 0.00 | 0.00 | 0.00 | 37 | 1006.8 |
| 20260505185619 | 58 | 141 | 2.0 | 11.0 | 0.00 | 0.00 | 0.00 | 38 | 1006.8 |
| 20260505185115 | 60 | 306 | 4.0 | 8.0 | 0.00 | 0.00 | 0.00 | 35 | 1006.9 |
| 20260505184611 | 61 | 255 | 4.0 | 10.0 | 0.00 | 0.00 | 0.00 | 39 | 1007.1 |
| 20260505184108 | 61 | 257 | 3.0 | 6.0 | 0.00 | 0.00 | 0.00 | 38 | 1006.9 |
| 20260505183605 | 61 | 258 | 3.0 | 6.0 | 0.00 | 0.00 | 0.00 | 39 | 1007.0 |
| 20260505183103 | 60 | 154 | 6.0 | 7.0 | 0.00 | 0.00 | 0.00 | 36 | 1007.1 |
| 20260505182559 | 60 | 235 | 3.0 | 4.0 | 0.00 | 0.00 | 0.00 | 41 | 1007.1 |
| 20260505182056 | 59 | 158 | 7.0 | 8.0 | 0.00 | 0.00 | 0.00 | 36 | 1007.1 |
| 20260505181552 | 59 | 307 | 3.0 | 5.0 | 0.00 | 0.00 | 0.00 | 39 | 1007.0 |
| 20260505181050 | 58 | 240 | 5.0 | 6.0 | 0.00 | 0.00 | 0.00 | 39 | 1007.2 |
| 20260505180545 | 59 | 216 | 4.0 | 8.0 | 0.00 | 0.00 | 0.00 | 38 | 1007.1 |
| 20260505180043 | 58 | 143 | 5.0 | 6.0 | 0.00 | 0.00 | 0.00 | 38 | 1007.1 |
| 20260505175538 | 59 | 222 | 1.0 | 4.0 | 0.00 | 0.00 | 0.00 | 39 | 1007.2 |
| 20260505175035 | 60 | 240 | 3.0 | 4.0 | 0.00 | 0.00 | 0.00 | 38 | 1007.4 |
| 20260505174532 | 60 | 297 | 4.0 | 4.0 | 0.00 | 0.00 | 0.00 | 41 | 1007.4 |
| 20260505174028 | 57 | 259 | 5.0 | 5.0 | 0.00 | 0.00 | 0.00 | 41 | 1007.2 |
| 20260505173525 | 57 | 246 | 3.0 | 6.0 | 0.00 | 0.00 | 0.00 | 44 | 1007.4 |
| 20260505173021 | 57 | 272 | 2.0 | 7.0 | 0.00 | 0.00 | 0.00 | 43 | 1007.4 |
| 20260505172519 | 57 | 238 | 4.0 | 7.0 | 0.00 | 0.00 | 0.00 | 40 | 1007.4 |
| 20260505172014 | 56 | 232 | 2.0 | 6.0 | 0.00 | 0.00 | 0.00 | 41 | 1007.2 |
| 20260505171505 | 57 | 205 | 6.0 | 6.0 | 0.00 | 0.00 | 0.00 | 39 | 1007.2 |
| 20260505171002 | 58 | 208 | 4.0 | 5.0 | 0.00 | 0.00 | 0.00 | 37 | 1007.5 |
| 20260505170458 | 58 | 266 | 2.0 | 5.0 | 0.00 | 0.00 | 0.00 | 39 | 1007.5 |
| 20260505165953 | 59 | 311 | 3.0 | 5.0 | 0.00 | 0.00 | 0.00 | 40 | 1007.2 |
| 20260505165444 | 58 | 195 | 4.0 | 9.0 | 0.00 | 0.00 | 0.00 | 40 | 1007.2 |
| 20260505164939 | 58 | 195 | 1.0 | 4.0 | 0.00 | 0.00 | 0.00 | 37 | 1007.4 |
| 20260505164436 | 57 | 264 | 2.0 | 4.0 | 0.00 | 0.00 | 0.00 | 42 | 1007.4 |
| 20260505163934 | 57 | 281 | 7.0 | 9.0 | 0.00 | 0.00 | 0.00 | 40 | 1007.1 |
| 20260505163432 | 56 | 142 | 9.0 | 14.0 | 0.00 | 0.00 | 0.00 | 38 | 1007.5 |
| 20260505162926 | 57 | 174 | 2.0 | 4.0 | 0.00 | 0.00 | 0.00 | 41 | 1007.4 |
| 20260505162421 | 56 | 177 | 2.0 | 5.0 | 0.00 | 0.00 | 0.00 | 40 | 1007.4 |
| 20260505161918 | 55 | 269 | 5.0 | 6.0 | 0.00 | 0.00 | 0.00 | 45 | 1007.4 |
| 20260505161415 | 56 | 176 | 4.0 | 5.0 | 0.00 | 0.00 | 0.00 | 40 | 1007.5 |
| 20260505160913 | 53 | 184 | 2.0 | 8.0 | 0.00 | 0.00 | 0.00 | 43 | 1007.2 |
| 20260505160410 | 54 | 272 | 2.0 | 6.0 | 0.00 | 0.00 | 0.00 | 44 | 1007.5 |
| 20260505153344 | 54 | 241 | 2.0 | 2.0 | 0.00 | 0.00 | 0.00 | 42 | 1007.2 |
| 20260505152840 | 52 | 303 | 2.0 | 3.0 | 0.00 | 0.00 | 0.00 | 46 | 1007.4 |
| 20260505152337 | 51 | 211 | 1.0 | 7.0 | 0.00 | 0.00 | 0.00 | 45 | 1007.4 |
| 20260505151831 | 52 | 324 | 1.0 | 4.0 | 0.00 | 0.00 | 0.00 | 44 | 1007.2 |
| 20260505151328 | 50 | 308 | 2.0 | 4.0 | 0.00 | 0.00 | 0.00 | 46 | 1007.4 |
| 20260505150825 | 49 | 224 | 2.0 | 2.0 | 0.00 | 0.00 | 0.00 | 47 | 1007.2 |
| 20260505150322 | 50 | 50 | 2.0 | 2.0 | 0.00 | 0.00 | 0.00 | 48 | 1007.5 |
| 20260505140246 | 40 | 53 | 3.0 | 6.0 | 0.00 | 0.00 | 0.00 | 60 | 1007.5 |
| 20260505130210 | 35 | 58 | 2.0 | 6.0 | 0.00 | 0.00 | 0.00 | 69 | 1007.2 |
| 20260505124700 | 35 | 108 | 5.0 | 7.0 | 0.00 | 0.00 | 0.00 | 68 | 1007.0 |
| 20260505124157 | 35 | 91 | 3.0 | 12.0 | 0.00 | 0.00 | 0.00 | 67 | 1006.8 |
| 20260505123653 | 35 | 77 | 4.0 | 9.0 | 0.00 | 0.00 | 0.00 | 68 | 1007.1 |
| 20260505123150 | 35 | 126 | 10.0 | 11.0 | 0.00 | 0.00 | 0.00 | 68 | 1007.0 |
| 20260505122641 | 35 | 58 | 3.0 | 10.0 | 0.00 | 0.00 | 0.00 | 68 | 1007.0 |
| 20260505122138 | 35 | 84 | 4.0 | 11.0 | 0.00 | 0.00 | 0.00 | 67 | 1007.1 |
| 20260505121634 | 35 | 94 | 6.0 | 12.0 | 0.00 | 0.00 | 0.00 | 67 | 1006.9 |
| 20260505121126 | 35 | 99 | 5.0 | 12.0 | 0.00 | 0.00 | 0.00 | 67 | 1007.0 |
| 20260505120621 | 36 | 108 | 5.0 | 10.0 | 0.00 | 0.00 | 0.00 | 66 | 1007.1 |
| 20260505120117 | 36 | 101 | 5.0 | 10.0 | 0.00 | 0.00 | 0.00 | 65 | 1006.8 |
| 20260505115612 | 36 | 42 | 4.0 | 12.0 | 0.00 | 0.00 | 0.00 | 65 | 1007.0 |
| 20260505115109 | 36 | 118 | 6.0 | 13.0 | 0.00 | 0.00 | 0.00 | 65 | 1007.1 |
| 20260505114607 | 35 | 49 | 6.0 | 6.0 | 0.00 | 0.00 | 0.00 | 66 | 1007.0 |
| 20260505114103 | 35 | 51 | 4.0 | 5.0 | 0.00 | 0.00 | 0.00 | 67 | 1007.2 |
| 20260505113559 | 36 | 34 | 4.0 | 9.0 | 0.00 | 0.00 | 0.00 | 66 | 1007.1 |
| 20260505113055 | 36 | 52 | 5.0 | 8.0 | 0.00 | 0.00 | 0.00 | 65 | 1007.1 |
| 20260505112551 | 36 | 53 | 4.0 | 8.0 | 0.00 | 0.00 | 0.00 | 65 | 1007.1 |
| 20260505112050 | 36 | 26 | 8.0 | 11.0 | 0.00 | 0.00 | 0.00 | 65 | 1007.4 |
| 20260505111544 | 36 | 58 | 4.0 | 9.0 | 0.00 | 0.00 | 0.00 | 66 | 1007.1 |
| 20260505111040 | 36 | 72 | 5.0 | 5.0 | 0.00 | 0.00 | 0.00 | 66 | 1007.0 |
| 20260505110537 | 36 | 57 | 6.0 | 12.0 | 0.00 | 0.00 | 0.00 | 66 | 1007.2 |
| 20260505102003 | 37 | 40 | 4.0 | 8.0 | 0.00 | 0.00 | 0.00 | 64 | 1007.0 |
| 20260505101455 | 37 | 61 | 5.0 | 14.0 | 0.00 | 0.00 | 0.00 | 63 | 1007.4 |
| 20260505100952 | 37 | 61 | 6.0 | 12.0 | 0.00 | 0.00 | 0.00 | 63 | 1007.4 |
| 20260505100450 | 37 | 60 | 8.0 | 13.0 | 0.00 | 0.00 | 0.00 | 64 | 1007.2 |
| 20260505095945 | 37 | 75 | 7.0 | 11.0 | 0.00 | 0.00 | 0.00 | 65 | 1007.5 |
| 20260505095442 | 37 | 82 | 6.0 | 9.0 | 0.00 | 0.00 | 0.00 | 65 | 1007.2 |
| 20260505094938 | 37 | 89 | 6.0 | 10.0 | 0.00 | 0.00 | 0.00 | 65 | 1007.2 |
| 20260505094435 | 37 | 80 | 5.0 | 11.0 | 0.00 | 0.00 | 0.00 | 64 | 1007.2 |
| 20260505093931 | 37 | 115 | 7.0 | 11.0 | 0.00 | 0.00 | 0.00 | 63 | 1007.1 |
| 20260505093428 | 37 | 69 | 9.0 | 12.0 | 0.00 | 0.00 | 0.00 | 64 | 1007.1 |
| 20260505092925 | 38 | 34 | 5.0 | 11.0 | 0.00 | 0.00 | 0.00 | 65 | 1007.4 |
| 20260505092423 | 38 | 66 | 5.0 | 8.0 | 0.00 | 0.00 | 0.00 | 64 | 1007.4 |
| 20260505091920 | 38 | 60 | 4.0 | 11.0 | 0.00 | 0.00 | 0.00 | 63 | 1007.2 |
| 20260505091418 | 38 | 104 | 7.0 | 8.0 | 0.00 | 0.00 | 0.00 | 63 | 1007.4 |
| 20260505090915 | 38 | 56 | 5.0 | 10.0 | 0.00 | 0.00 | 0.00 | 63 | 1007.2 |
| 20260505090413 | 38 | 72 | 6.0 | 8.0 | 0.00 | 0.00 | 0.00 | 63 | 1007.2 |
| 20260505085911 | 38 | 49 | 12.0 | 13.0 | 0.00 | 0.00 | 0.00 | 63 | 1007.2 |
| 20260505085409 | 38 | 73 | 9.0 | 10.0 | 0.00 | 0.00 | 0.00 | 62 | 1007.6 |
| 20260505084907 | 39 | 50 | 7.0 | 9.0 | 0.00 | 0.00 | 0.00 | 62 | 1007.5 |
| 20260505084405 | 39 | 113 | 6.0 | 7.0 | 0.00 | 0.00 | 0.00 | 62 | 1007.4 |
| 20260505083903 | 39 | 52 | 9.0 | 11.0 | 0.00 | 0.00 | 0.00 | 62 | 1007.7 |
| 20260505083400 | 39 | 64 | 6.0 | 9.0 | 0.00 | 0.00 | 0.00 | 62 | 1007.8 |
| 20260505082856 | 39 | 67 | 8.0 | 11.0 | 0.00 | 0.00 | 0.00 | 63 | 1007.7 |
| 20260505082352 | 39 | 51 | 4.0 | 11.0 | 0.00 | 0.00 | 0.00 | 62 | 1007.7 |
| 20260505081849 | 39 | 67 | 3.0 | 11.0 | 0.00 | 0.00 | 0.00 | 62 | 1007.8 |
| 20260505081345 | 39 | 141 | 5.0 | 6.0 | 0.00 | 0.00 | 0.00 | 62 | 1007.7 |
| 20260505080842 | 40 | 81 | 5.0 | 13.0 | 0.00 | 0.00 | 0.00 | 61 | 1007.8 |
| 20260505080338 | 40 | 71 | 3.0 | 12.0 | 0.00 | 0.00 | 0.00 | 61 | 1007.7 |
| 20260505075834 | 40 | 40 | 5.0 | 9.0 | 0.00 | 0.00 | 0.00 | 61 | 1007.7 |
| 20260505075330 | 40 | 112 | 6.0 | 8.0 | 0.00 | 0.00 | 0.00 | 61 | 1007.8 |
| 20260505074828 | 40 | 51 | 2.0 | 7.0 | 0.00 | 0.00 | 0.00 | 61 | 1007.9 |
| 20260505074325 | 40 | 73 | 6.0 | 11.0 | 0.00 | 0.00 | 0.00 | 62 | 1007.9 |
| 20260505073822 | 40 | 65 | 6.0 | 7.0 | 0.00 | 0.00 | 0.00 | 63 | 1008.1 |
| 20260505073320 | 41 | 70 | 7.0 | 10.0 | 0.00 | 0.00 | 0.00 | 61 | 1007.9 |
| 20260505072816 | 41 | 105 | 4.0 | 9.0 | 0.00 | 0.00 | 0.00 | 63 | 1007.8 |
| 20260505072312 | 41 | 81 | 4.0 | 11.0 | 0.00 | 0.00 | 0.00 | 62 | 1007.8 |
| 20260505071808 | 41 | 54 | 9.0 | 9.0 | 0.00 | 0.00 | 0.00 | 62 | 1008.2 |
| 20260505071305 | 41 | 57 | 6.0 | 8.0 | 0.00 | 0.00 | 0.00 | 62 | 1007.8 |
| 20260505070803 | 41 | 68 | 5.0 | 7.0 | 0.00 | 0.00 | 0.00 | 63 | 1008.1 |
| 20260505070254 | 41 | 74 | 6.0 | 8.0 | 0.00 | 0.00 | 0.00 | 65 | 1007.8 |
| 20260505065749 | 41 | 64 | 5.0 | 7.0 | 0.00 | 0.00 | 0.00 | 64 | 1007.7 |
| 20260505065246 | 41 | 85 | 4.0 | 9.0 | 0.00 | 0.00 | 0.00 | 65 | 1007.7 |
| 20260505064743 | 41 | 42 | 8.0 | 8.0 | 0.00 | 0.00 | 0.00 | 64 | 1007.7 |
| 20260505064241 | 42 | 60 | 6.0 | 9.0 | 0.00 | 0.00 | 0.00 | 64 | 1007.7 |
| 20260505063738 | 42 | 65 | 6.0 | 9.0 | 0.00 | 0.00 | 0.00 | 63 | 1007.5 |
| 20260505063235 | 42 | 85 | 4.0 | 7.0 | 0.00 | 0.00 | 0.00 | 62 | 1007.5 |
| 20260505062731 | 42 | 64 | 7.0 | 8.0 | 0.00 | 0.00 | 0.00 | 63 | 1007.4 |
| 20260505062229 | 42 | 71 | 5.0 | 7.0 | 0.00 | 0.00 | 0.00 | 62 | 1007.4 |
| 20260505061725 | 42 | 63 | 4.0 | 5.0 | 0.00 | 0.00 | 0.00 | 63 | 1007.5 |
| 20260505061224 | 43 | 113 | 4.0 | 6.0 | 0.00 | 0.00 | 0.00 | 62 | 1007.4 |
| 20260505060721 | 43 | 62 | 6.0 | 10.0 | 0.00 | 0.00 | 0.00 | 64 | 1007.5 |
| 20260505060217 | 43 | 58 | 5.0 | 10.0 | 0.00 | 0.00 | 0.00 | 64 | 1007.4 |
| 20260505055713 | 43 | 55 | 5.0 | 8.0 | 0.00 | 0.02 | 0.02 | 63 | 1007.0 |
| 20260505055209 | 43 | 70 | 5.0 | 6.0 | 0.00 | 0.02 | 0.02 | 62 | 1007.2 |
| 20260505054707 | 44 | 58 | 4.0 | 6.0 | 0.00 | 0.02 | 0.02 | 62 | 1007.4 |
| 20260505054204 | 44 | 104 | 3.0 | 5.0 | 0.00 | 0.02 | 0.02 | 63 | 1007.2 |
| 20260505053656 | 44 | 58 | 2.0 | 4.0 | 0.00 | 0.02 | 0.02 | 62 | 1007.5 |
| 20260505053153 | 44 | 32 | 3.0 | 7.0 | 0.00 | 0.02 | 0.02 | 65 | 1007.5 |
| 20260505052650 | 43 | 73 | 6.0 | 9.0 | 0.00 | 0.02 | 0.02 | 65 | 1007.2 |
| 20260505052147 | 43 | 83 | 3.0 | 5.0 | 0.00 | 0.02 | 0.02 | 66 | 1007.5 |
| 20260505051643 | 43 | 93 | 3.0 | 3.0 | 0.00 | 0.02 | 0.02 | 69 | 1007.7 |
| 20260505051141 | 43 | 102 | 3.0 | 4.0 | 0.00 | 0.02 | 0.02 | 67 | 1007.5 |
| 20260505050638 | 43 | 108 | 2.0 | 4.0 | 0.00 | 0.02 | 0.02 | 66 | 1007.6 |
| 20260505050137 | 43 | 98 | 3.0 | 3.0 | 0.00 | 0.02 | 0.02 | 68 | 1007.6 |
| 20260505041606 | 45 | 96 | 1.0 | 1.0 | 0.00 | 0.02 | 0.02 | 64 | 1007.1 |
| 20260505041104 | 46 | 123 | 1.0 | 2.0 | 0.00 | 0.02 | 0.02 | 61 | 1007.1 |
| 20260505040601 | 46 | 229 | 0.0 | 1.0 | 0.00 | 0.02 | 0.02 | 59 | 1006.5 |
| 20260505040058 | 47 | 212 | 0.0 | 0.0 | 0.00 | 0.02 | 0.02 | 60 | 1006.9 |
| 20260505035554 | 47 | 130 | 0.0 | 3.0 | 0.00 | 0.02 | 0.02 | 57 | 1006.5 |
| 20260505035051 | 48 | 147 | 0.0 | 2.0 | 0.00 | 0.02 | 0.02 | 53 | 1006.5 |
| 20260505034547 | 48 | 110 | 2.0 | 2.0 | 0.00 | 0.02 | 0.02 | 57 | 1006.2 |
| 20260505034044 | 49 | 293 | 0.0 | 0.0 | 0.00 | 0.02 | 0.02 | 51 | 1006.4 |
| 20260505033541 | 49 | 11 | 0.0 | 0.0 | 0.00 | 0.02 | 0.02 | 50 | 1006.4 |
| 20260505033039 | 50 | 306 | 0.0 | 1.0 | 0.00 | 0.02 | 0.02 | 50 | 1006.1 |
| 20260505032537 | 50 | 48 | 0.0 | 0.0 | 0.00 | 0.02 | 0.02 | 49 | 1006.3 |
| 20260505032033 | 51 | 293 | 0.0 | 0.0 | 0.00 | 0.02 | 0.02 | 54 | 1006.7 |
| 20260505031531 | 51 | 55 | 0.0 | 1.0 | 0.00 | 0.02 | 0.02 | 48 | 1006.5 |
| 20260505031027 | 51 | 30 | 0.0 | 1.0 | 0.00 | 0.02 | 0.02 | 49 | 1006.4 |
| 20260505030524 | 51 | 44 | 1.0 | 1.0 | 0.00 | 0.02 | 0.02 | 51 | 1006.2 |
| 20260505030020 | 52 | 66 | 0.0 | 0.0 | 0.00 | 0.02 | 0.02 | 49 | 1006.4 |
| 20260505025516 | 52 | 44 | 0.0 | 1.0 | 0.00 | 0.02 | 0.02 | 47 | 1006.1 |
| 20260505025015 | 53 | 320 | 0.0 | 1.0 | 0.00 | 0.02 | 0.02 | 45 | 1005.8 |
| 20260505024511 | 53 | 17 | 0.0 | 2.0 | 0.00 | 0.02 | 0.02 | 44 | 1005.9 |
| 20260505024009 | 54 | 1 | 0.0 | 2.0 | 0.00 | 0.02 | 0.02 | 47 | 1005.8 |
| 20260505023505 | 55 | 359 | 1.0 | 2.0 | 0.00 | 0.02 | 0.02 | 44 | 1005.7 |
| 20260505023003 | 55 | 12 | 1.0 | 2.0 | 0.00 | 0.02 | 0.02 | 42 | 1005.7 |
| 20260505022500 | 56 | 269 | 0.0 | 4.0 | 0.00 | 0.02 | 0.02 | 39 | 1005.8 |
| 20260505021957 | 57 | 263 | 2.0 | 4.0 | 0.00 | 0.02 | 0.02 | 39 | 1005.7 |
| 20260505021454 | 57 | 322 | 0.0 | 5.0 | 0.00 | 0.02 | 0.02 | 41 | 1005.6 |
| 20260505020949 | 57 | 322 | 0.0 | 2.0 | 0.00 | 0.02 | 0.02 | 39 | 1005.8 |
| 20260505020445 | 58 | 343 | 0.0 | 4.0 | 0.00 | 0.02 | 0.02 | 36 | 1005.5 |
| 20260505015942 | 58 | 193 | 0.0 | 3.0 | 0.00 | 0.02 | 0.02 | 39 | 1005.5 |
| 20260505015439 | 59 | 308 | 2.0 | 5.0 | 0.00 | 0.02 | 0.02 | 40 | 1005.5 |
| 20260505014937 | 59 | 251 | 3.0 | 6.0 | 0.00 | 0.02 | 0.02 | 36 | 1005.5 |
| 20260505014433 | 59 | 310 | 2.0 | 6.0 | 0.00 | 0.02 | 0.02 | 36 | 1005.5 |
| 20260505013930 | 60 | 254 | 5.0 | 9.0 | 0.00 | 0.02 | 0.02 | 35 | 1005.7 |
| 20260505013427 | 60 | 258 | 4.0 | 9.0 | 0.00 | 0.02 | 0.02 | 34 | 1005.8 |
| 20260505012925 | 60 | 213 | 2.0 | 9.0 | 0.00 | 0.02 | 0.02 | 32 | 1005.8 |
| 20260505012423 | 60 | 260 | 0.0 | 8.0 | 0.00 | 0.02 | 0.02 | 32 | 1005.7 |
| 20260505011919 | 60 | 209 | 3.0 | 6.0 | 0.00 | 0.02 | 0.02 | 31 | 1005.6 |
| 20260505011416 | 60 | 246 | 4.0 | 6.0 | 0.00 | 0.02 | 0.02 | 31 | 1005.5 |
| 20260505010912 | 61 | 245 | 0.0 | 6.0 | 0.00 | 0.02 | 0.02 | 33 | 1005.7 |
| 20260505010408 | 61 | 277 | 3.0 | 7.0 | 0.00 | 0.02 | 0.02 | 33 | 1005.7 |
| 20260505005904 | 61 | 287 | 0.0 | 7.0 | 0.00 | 0.02 | 0.02 | 36 | 1005.5 |
| 20260505005401 | 62 | 268 | 2.0 | 4.0 | 0.00 | 0.02 | 0.02 | 34 | 1005.4 |
| 20260505004859 | 62 | 285 | 1.0 | 5.0 | 0.00 | 0.02 | 0.02 | 35 | 1005.8 |
| 20260505004355 | 62 | 207 | 2.0 | 4.0 | 0.00 | 0.02 | 0.02 | 34 | 1005.8 |
| 20260505003852 | 62 | 214 | 4.0 | 10.0 | 0.00 | 0.02 | 0.02 | 33 | 1005.7 |
| 20260505003349 | 62 | 288 | 3.0 | 6.0 | 0.00 | 0.02 | 0.02 | 34 | 1005.9 |
| 20260505002845 | 62 | 241 | 2.0 | 5.0 | 0.00 | 0.02 | 0.02 | 34 | 1005.7 |
| 20260505002342 | 62 | 273 | 0.0 | 3.0 | 0.00 | 0.02 | 0.02 | 34 | 1005.7 |
| 20260505001841 | 63 | 271 | 3.0 | 4.0 | 0.00 | 0.02 | 0.02 | 31 | 1005.9 |
| 20260505001337 | 63 | 265 | 3.0 | 11.0 | 0.00 | 0.02 | 0.02 | 30 | 1005.9 |
| 20260505000835 | 64 | 251 | 3.0 | 9.0 | 0.00 | 0.02 | 0.02 | 29 | 1005.7 |
| 20260505000332 | 64 | 13 | 2.0 | 11.0 | 0.00 | 0.02 | 0.02 | 29 | 1005.9 |
| 20260504235829 | 64 | 277 | 2.0 | 8.0 | 0.00 | 0.02 | 0.02 | 32 | 1005.9 |
| 20260504235326 | 64 | 287 | 2.0 | 3.0 | 0.00 | 0.02 | 0.02 | 32 | 1005.9 |
| 20260504234822 | 64 | 278 | 0.0 | 7.0 | 0.00 | 0.02 | 0.02 | 32 | 1005.9 |
| 20260504234320 | 64 | 287 | 2.0 | 7.0 | 0.00 | 0.02 | 0.02 | 32 | 1006.2 |
| 20260504233816 | 64 | 289 | 3.0 | 6.0 | 0.00 | 0.02 | 0.02 | 33 | 1005.6 |
| 20260504233312 | 64 | 275 | 5.0 | 13.0 | 0.00 | 0.02 | 0.02 | 31 | 1005.8 |
| 20260504232809 | 65 | 177 | 2.0 | 7.0 | 0.00 | 0.02 | 0.02 | 31 | 1005.8 |
| 20260504232306 | 65 | 299 | 3.0 | 3.0 | 0.00 | 0.02 | 0.02 | 33 | 1005.8 |
| 20260504231803 | 64 | 254 | 5.0 | 6.0 | 0.00 | 0.02 | 0.02 | 33 | 1005.7 |
| 20260504231259 | 64 | 199 | 4.0 | 6.0 | 0.00 | 0.02 | 0.02 | 31 | 1006.1 |
| 20260504230755 | 65 | 167 | 5.0 | 7.0 | 0.00 | 0.02 | 0.02 | 30 | 1005.7 |